When you browse on this site, cookies collect data to enhance your experience and personalize the content and advertising you see.
Visit our Privacy Policy to learn more. By continuing to use the site, you agree to this use of cookies and data.
  • In Switzerland
  • List of Countries
  • For 7 days
  • Water Temperature
  • Weather Map
  • Weather Widgets
  • user-avatar
    Login

    Hourly Weather Bezancon

    Today, 25 May, Monday

    Time Temperature Precipitation Wind Pressure Humidity
    00:00 +8°C° 0 mm 2 mps 745 mmHg 96%
    01:00 +8°C° 0 mm 2 mps 745 mmHg 96%
    02:00 +8°C° 0 mm 2 mps 745 mmHg 96%
    03:00 +8°C° 0 mm 2 mps 745 mmHg 96%
    04:00 +9°C° 0 mm 2 mps 745 mmHg 92%
    05:00 +10°C° 0 mm 3 mps 745 mmHg 88%
    06:00 +12°C° 0 mm 3 mps 746 mmHg 84%
    07:00 +14°C° 0 mm 3 mps 746 mmHg 77%
    08:00 +15°C° 0 mm 4 mps 745 mmHg 69%
    09:00 +18°C° 0 mm 4 mps 745 mmHg 62%
    10:00 +19°C° 0 mm 4 mps 745 mmHg 59%
    11:00 +20°C° 0 mm 4 mps 745 mmHg 57%
    12:00 +21°C° 0 mm 4 mps 744 mmHg 54%
    13:00 +21°C° 0 mm 4 mps 744 mmHg 54%
    14:00 +21°C° 0 mm 4 mps 744 mmHg 55%
    15:00 +21°C° 0 mm 5 mps 744 mmHg 56%
    16:00 +20°C° 0 mm 4 mps 744 mmHg 61%
    17:00 +19°C° 0 mm 4 mps 744 mmHg 67%
    18:00 +18°C° 0 mm 4 mps 744 mmHg 72%
    19:00 +16°C° 0 mm 3 mps 744 mmHg 77%
    20:00 +14°C° 0 mm 3 mps 745 mmHg 81%
    21:00 +12°C° 0 mm 3 mps 745 mmHg 85%
    22:00 +12°C° 0 mm 3 mps 745 mmHg 86%
    23:00 +11°C° 0 mm 3 mps 745 mmHg 88%

    Tomorrow, 26 May, Tuesday

    Time Temperature Precipitation Wind Pressure Humidity
    00:00 +11°C° 0 mm 3 mps 745 mmHg 89%
    01:00 +10°C° 0 mm 3 mps 744 mmHg 89%
    02:00 +10°C° 0 mm 3 mps 744 mmHg 89%
    03:00 +10°C° 0 mm 3 mps 744 mmHg 89%
    04:00 +11°C° 0 mm 3 mps 744 mmHg 85%
    05:00 +11°C° 0 mm 4 mps 744 mmHg 82%
    06:00 +12°C° 0 mm 4 mps 744 mmHg 78%
    07:00 +14°C° 0 mm 4 mps 744 mmHg 71%
    08:00 +16°C° 0 mm 5 mps 745 mmHg 64%
    09:00 +19°C° 0 mm 5 mps 745 mmHg 57%
    10:00 +19°C° 0 mm 5 mps 744 mmHg 55%
    11:00 +20°C° 0 mm 5 mps 744 mmHg 52%
    12:00 +21°C° 0 mm 5 mps 744 mmHg 49%
    13:00 +21°C° 0 mm 5 mps 744 mmHg 51%
    14:00 +21°C° 0 mm 5 mps 744 mmHg 54%
    15:00 +21°C° 0 mm 5 mps 744 mmHg 56%
    16:00 +20°C° 0 mm 4 mps 744 mmHg 62%
    17:00 +19°C° 0 mm 4 mps 744 mmHg 67%
    18:00 +18°C° 0 mm 4 mps 744 mmHg 72%
    19:00 +16°C° 0 mm 3 mps 744 mmHg 76%
    20:00 +14°C° 0 mm 3 mps 744 mmHg 79%
    21:00 +12°C° 0 mm 3 mps 744 mmHg 82%
    22:00 +11°C° 0 mm 3 mps 744 mmHg 83%
    23:00 +10°C° 0 mm 3 mps 744 mmHg 84%

    Day after tomorrow, 27 May, Wednesday

    Time Temperature Precipitation Wind Pressure Humidity
    00:00 +10°C° 0 mm 3 mps 744 mmHg 85%
    01:00 +9°C° 0 mm 3 mps 743 mmHg 87%
    02:00 +9°C° 0 mm 2 mps 743 mmHg 89%
    03:00 +8°C° 0 mm 2 mps 743 mmHg 92%
    04:00 +9°C° 0 mm 3 mps 743 mmHg 86%
    05:00 +11°C° 0 mm 3 mps 744 mmHg 81%
    06:00 +12°C° 0 mm 3 mps 744 mmHg 75%
    07:00 +14°C° 0 mm 3 mps 744 mmHg 67%
    08:00 +17°C° 0 mm 4 mps 744 mmHg 59%
    09:00 +19°C° 0 mm 4 mps 744 mmHg 51%
    10:00 +20°C° 0 mm 4 mps 744 mmHg 49%
    11:00 +21°C° 0 mm 4 mps 744 mmHg 46%
    12:00 +22°C° 0 mm 4 mps 744 mmHg 44%
    13:00 +22°C° 0 mm 4 mps 744 mmHg 46%
    14:00 +22°C° 0 mm 4 mps 744 mmHg 47%
    15:00 +22°C° 0 mm 4 mps 744 mmHg 49%
    16:00 +21°C° 0 mm 3 mps 743 mmHg 56%
    17:00 +20°C° 0 mm 3 mps 743 mmHg 64%
    18:00 +19°C° 0 mm 2 mps 743 mmHg 72%
    19:00 +17°C° 0 mm 2 mps 743 mmHg 75%
    20:00 +15°C° 0 mm 2 mps 743 mmHg 79%
    21:00 +14°C° 0 mm 2 mps 743 mmHg 83%
    22:00 +13°C° 0 mm 2 mps 743 mmHg 84%
    23:00 +12°C° 0 mm 2 mps 743 mmHg 85%

    28 May, Thursday

    Time Temperature Precipitation Wind Pressure Humidity
    00:00 +12°C° 0 mm 2 mps 743 mmHg 85%
    01:00 +10°C° 0 mm 2 mps 743 mmHg 84%
    02:00 +10°C° 0 mm 2 mps 742 mmHg 83%
    03:00 +9°C° 0 mm 2 mps 742 mmHg 83%
    04:00 +12°C° 0 mm 2 mps 742 mmHg 80%
    05:00 +13°C° 0 mm 2 mps 742 mmHg 77%
    06:00 +14°C° 0 mm 2 mps 742 mmHg 74%
    07:00 +16°C° 0 mm 3 mps 742 mmHg 69%
    08:00 +18°C° 0 mm 3 mps 742 mmHg 63%
    09:00 +20°C° 0 mm 4 mps 742 mmHg 58%
    10:00 +21°C° 0 mm 4 mps 742 mmHg 56%
    11:00 +22°C° 0 mm 4 mps 741 mmHg 54%
    12:00 +23°C° 0 mm 4 mps 741 mmHg 52%
    13:00 +22°C° 0.1 mm 4 mps 740 mmHg 57%
    14:00 +22°C° 0.1 mm 4 mps 740 mmHg 61%
    15:00 +21°C° 0.1 mm 4 mps 740 mmHg 65%
    16:00 +20°C° 0.1 mm 4 mps 740 mmHg 69%
    17:00 +19°C° 0.1 mm 4 mps 740 mmHg 73%
    18:00 +18°C° 0.1 mm 4 mps 740 mmHg 77%
    19:00 +17°C° 0 mm 3 mps 739 mmHg 78%
    20:00 +14°C° 0 mm 3 mps 739 mmHg 79%
    21:00 +12°C° 0 mm 3 mps 739 mmHg 80%
    22:00 +11°C° 0 mm 3 mps 739 mmHg 81%
    23:00 +10°C° 0 mm 2 mps 739 mmHg 81%

    29 May, Friday

    Time Temperature Precipitation Wind Pressure Humidity
    00:00 +9°C° 0 mm 2 mps 739 mmHg 81%
    01:00 +9°C° 0 mm 2 mps 738 mmHg 83%
    02:00 +8°C° 0 mm 2 mps 738 mmHg 85%
    03:00 +8°C° 0 mm 2 mps 738 mmHg 87%
    04:00 +9°C° 0 mm 2 mps 738 mmHg 82%
    05:00 +10°C° 0 mm 3 mps 738 mmHg 78%
    06:00 +11°C° 0 mm 3 mps 738 mmHg 73%
    07:00 +13°C° 0 mm 3 mps 737 mmHg 66%
    08:00 +16°C° 0 mm 3 mps 737 mmHg 60%
    09:00 +17°C° 0 mm 4 mps 737 mmHg 54%
    10:00 +18°C° 0 mm 4 mps 737 mmHg 51%
    11:00 +19°C° 0 mm 4 mps 736 mmHg 48%
    12:00 +20°C° 0 mm 4 mps 736 mmHg 45%
    13:00 +20°C° 0 mm 4 mps 736 mmHg 47%
    14:00 +20°C° 0 mm 4 mps 736 mmHg 48%
    15:00 +20°C° 0 mm 4 mps 735 mmHg 49%
    16:00 +19°C° 0 mm 4 mps 735 mmHg 56%
    17:00 +18°C° 0 mm 4 mps 735 mmHg 63%
    18:00 +17°C° 0 mm 3 mps 735 mmHg 69%
    19:00 +14°C° 0 mm 3 mps 736 mmHg 70%
    20:00 +13°C° 0 mm 3 mps 736 mmHg 70%
    21:00 +11°C° 0 mm 3 mps 736 mmHg 70%
    22:00 +10°C° 0 mm 3 mps 736 mmHg 71%
    23:00 +10°C° 0 mm 3 mps 736 mmHg 72%

    30 May, Saturday

    Time Temperature Precipitation Wind Pressure Humidity
    00:00 +9°C° 0 mm 3 mps 736 mmHg 73%
    01:00 +9°C° 0 mm 3 mps 736 mmHg 75%
    02:00 +8°C° 0 mm 3 mps 736 mmHg 77%
    03:00 +8°C° 0 mm 3 mps 736 mmHg 79%
    04:00 +8°C° 0 mm 4 mps 736 mmHg 77%
    05:00 +10°C° 0 mm 4 mps 736 mmHg 74%
    06:00 +10°C° 0 mm 5 mps 736 mmHg 72%
    07:00 +12°C° 0 mm 5 mps 736 mmHg 65%
    08:00 +14°C° 0 mm 6 mps 736 mmHg 58%
    09:00 +16°C° 0 mm 6 mps 736 mmHg 52%
    10:00 +17°C° 0 mm 6 mps 736 mmHg 49%
    11:00 +19°C° 0 mm 6 mps 735 mmHg 47%
    12:00 +20°C° 0 mm 6 mps 735 mmHg 44%
    13:00 +20°C° 0 mm 6 mps 735 mmHg 45%
    14:00 +20°C° 0 mm 6 mps 735 mmHg 46%
    15:00 +20°C° 0 mm 5 mps 735 mmHg 46%
    16:00 +19°C° 0 mm 5 mps 735 mmHg 52%
    17:00 +18°C° 0 mm 4 mps 735 mmHg 58%
    18:00 +17°C° 0 mm 4 mps 735 mmHg 64%
    19:00 +14°C° 0 mm 3 mps 735 mmHg 68%
    20:00 +13°C° 0 mm 3 mps 735 mmHg 71%
    21:00 +11°C° 0 mm 3 mps 736 mmHg 74%
    22:00 +10°C° 0 mm 3 mps 736 mmHg 77%
    23:00 +9°C° 0 mm 2 mps 735 mmHg 80%
    Show more